Spokane Fairchild, WA

7:31 PM PDT on May 29, 2017 (GMT -0700)
Fairchild Air Force Base

Weather History for KSKA - August, 2013

Change the Weather History Date:

Tuesday, August 6, 2013

  Actual Average Record
Temperature  
Mean Temperature 74 °F -  
Max Temperature 88 °F 83 °F 96 °F (1997)
Min Temperature 59 °F 56 °F 46 °F (1996)
Cooling Degree Days 8    
Growing Degree Days 24 (Base 50)    
Moisture  
Dew Point 50 °F    
Average Humidity 38    
Maximum Humidity 83    
Minimum Humidity 23    
Precipitation  
Precipitation 0.00 in - - ()
Sea Level Pressure  
Sea Level Pressure 29.95 in    
Wind  
Wind Speed 6 mph (SSE)    
Max Wind Speed 13 mph    
Max Gust Speed 23 mph    
Visibility 10 miles    
Events Rain    
Averages and records for this station are not official NWS values.
T = Trace of Precipitation, MM = Missing Value Source: NWS Daily Summary

Daily Weather History Graph

Daily Weather History Graph

Search for Another Location

Airport or City:

Trip Planner

Search our weather history database for the weather conditions in past years. The results will help you decide how hot, cold, wet, or windy it might be!

Date:

Astronomy

Aug. 06, 2013 Rise Set
Actual Time 5:34 AM PDT 8:17 PM PDT
Civil Twilight 4:59 AM PDT 8:52 PM PDT
Nautical Twilight 4:14 AM PDT 9:36 PM PDT
Astronomical Twilight 3:22 AM PDT 10:28 PM PDT
Moon 5:35 AM PDT (8/6) 7:47 PM PDT (8/6)
Length of Visible Light 15h 52m
Length of Day
14h 42m
Waning Crescent, 0% of the Moon is Illuminated
Aug 6
Waning Crescent
Aug 6
New
Aug 14
First Quarter
Aug 20
Full
Aug 28
Last Quarter

Hourly Weather History & Observations

Time (PDT) Temp. Heat Index Dew Point Humidity Pressure Visibility Wind Dir Wind Speed Gust Speed Precip Events Conditions
12:58 AM 63.5 °F - 47.7 °F 56% 29.96 in 10.0 mi West 5.8 mph - N/A   Clear
1:58 AM 60.8 °F - 48.0 °F 63% 29.92 in 10.0 mi West 5.8 mph - N/A   Clear
2:58 AM 60.4 °F - 46.9 °F 61% 29.93 in 10.0 mi North 8.1 mph - N/A   Partly Cloudy
3:58 AM 60.3 °F - 49.3 °F 67% 29.93 in 10.0 mi NE 6.9 mph - N/A   Mostly Cloudy
4:58 AM 59.9 °F - 54.0 °F 81% 29.93 in 10.0 mi NE 8.1 mph - N/A   Mostly Cloudy
5:58 AM 60.6 °F - 55.4 °F 83% 29.94 in 10.0 mi NNE 8.1 mph - N/A   Mostly Cloudy
6:58 AM 62.8 °F - 55.9 °F 78% 29.95 in 10.0 mi NE 10.4 mph - N/A   Clear
7:58 AM 66.4 °F - 57.0 °F 72% 29.97 in 10.0 mi ENE 6.9 mph - N/A   Clear
8:58 AM 69.6 °F - 57.9 °F 66% 29.99 in 10.0 mi ENE 4.6 mph - N/A   Clear
9:58 AM 74.1 °F - 57.4 °F 56% 29.99 in 10.0 mi ENE 5.8 mph - N/A   Clear
10:58 AM 79.3 °F - 56.1 °F 45% 29.99 in 10.0 mi Variable 2.3 mph - N/A   Clear
11:05 AM 78.8 °F - 55.4 °F 44% 30.02 in 10.0 mi Variable 3.5 mph - N/A   Light Drizzle
11:15 AM 80.6 °F 80.3 °F 53.6 °F 39% 30.02 in 10.0 mi Variable 1.2 mph - N/A   Clear
11:52 AM 82.4 °F - 51.8 °F 35% 30.02 in 10.0 mi ESE 9.2 mph - N/A Rain Light Rain
11:58 AM 82.6 °F - 50.9 °F 33% 29.99 in 10.0 mi SE 5.8 mph - 0.00 in   Light Drizzle
12:31 PM 84.2 °F - 51.8 °F 33% 30.01 in 10.0 mi Variable 2.3 mph - N/A   Scattered Clouds
12:37 PM 84.2 °F - 51.8 °F 33% 30.01 in 10.0 mi Variable 6.9 mph - N/A   Light Drizzle
12:38 PM 84.2 °F - 51.8 °F 33% 30.01 in 10.0 mi ESE 8.1 mph - N/A   Scattered Clouds
12:43 PM 84.2 °F - 50.0 °F 30% 30.01 in 10.0 mi Variable 5.8 mph - N/A   Light Drizzle
12:58 PM 85.6 °F - 49.8 °F 29% 29.97 in 10.0 mi SW 5.8 mph - 0.00 in Rain Light Rain
1:07 PM 84.2 °F - 50.0 °F 30% 30.00 in 10.0 mi Variable 6.9 mph - N/A   Partly Cloudy
1:31 PM 84.2 °F - 50.0 °F 30% 30.00 in 10.0 mi Variable 3.5 mph - N/A   Light Drizzle
1:41 PM 86.0 °F - 50.0 °F 29% 29.99 in 10.0 mi SSE 8.1 mph - N/A   Mostly Cloudy
1:43 PM 86.0 °F - 50.0 °F 29% 29.99 in 10.0 mi SSE 9.2 mph - N/A   Light Drizzle
1:56 PM 84.2 °F - 50.0 °F 30% 29.99 in 10.0 mi SE 8.1 mph - N/A   Mostly Cloudy
1:58 PM 84.2 °F - 50.0 °F 30% 29.95 in 10.0 mi ESE 8.1 mph - 0.00 in   Mostly Cloudy
2:12 PM 87.8 °F - 50.0 °F 27% 29.99 in 10.0 mi Variable 6.9 mph - N/A   Light Drizzle
2:21 PM 84.2 °F - 48.2 °F 29% 29.99 in 10.0 mi SSE 8.1 mph - N/A   Overcast
2:45 PM 86.0 °F - 48.2 °F 27% 29.98 in 10.0 mi South 6.9 mph - N/A   Light Drizzle
2:53 PM 86.0 °F - 46.4 °F 25% 29.98 in 10.0 mi SE 8.1 mph - N/A   Mostly Cloudy
2:58 PM 85.8 °F - 47.7 °F 26% 29.94 in 10.0 mi ESE 4.6 mph - 0.00 in   Overcast
3:05 PM 86.0 °F - 48.2 °F 27% 29.98 in 10.0 mi SW 12.7 mph 23.0 mph N/A   Overcast
3:58 PM 85.8 °F - 47.1 °F 26% 29.92 in 10.0 mi South 6.9 mph - N/A   Overcast
4:42 PM 87.8 °F - 46.4 °F 24% 29.95 in 10.0 mi South 8.1 mph - N/A Rain Light Rain
4:50 PM 87.8 °F - 46.4 °F 24% 29.95 in 10.0 mi South 8.1 mph - N/A   Mostly Cloudy
4:58 PM 88.0 °F - 45.5 °F 23% 29.91 in 10.0 mi SSE 9.2 mph - 0.00 in   Mostly Cloudy
5:58 PM 87.4 °F - 45.0 °F 23% 29.89 in 10.0 mi South 6.9 mph - N/A   Partly Cloudy
6:58 PM 86.0 °F - 45.3 °F 24% 29.88 in 10.0 mi SSW 6.9 mph - N/A   Clear
7:33 PM 82.4 °F - 46.4 °F 28% 29.92 in 10.0 mi SSW 5.8 mph - N/A   Light Drizzle
7:43 PM 82.4 °F - 46.4 °F 28% 29.92 in 10.0 mi SSW 5.8 mph - N/A   Clear
7:58 PM 80.8 °F - 46.8 °F 30% 29.88 in 10.0 mi SSW 4.6 mph - 0.00 in   Clear
7:59 PM 80.6 °F - 46.4 °F 30% 29.92 in 10.0 mi SSW 4.6 mph - N/A   Light Drizzle
8:01 PM 80.6 °F - 46.4 °F 30% 29.92 in 10.0 mi SSW 5.8 mph - N/A   Clear
8:06 PM 80.6 °F - 46.4 °F 30% 29.92 in 10.0 mi SSW 5.8 mph - N/A   Light Drizzle
8:08 PM 80.6 °F - 46.4 °F 30% 29.92 in 10.0 mi SSW 5.8 mph - N/A   Clear
8:22 PM 78.8 °F - 46.4 °F 32% 29.92 in 10.0 mi SSW 4.6 mph - N/A Rain Light Rain
8:32 PM 77.0 °F - 48.2 °F 36% 29.92 in 10.0 mi South 4.6 mph - N/A   Clear
8:58 PM 77.5 °F - 46.0 °F 33% 29.88 in 10.0 mi SSE 2.3 mph - 0.00 in   Clear
9:58 PM 72.7 °F - 46.4 °F 39% 29.88 in 10.0 mi WSW 5.8 mph - N/A   Clear
10:58 PM 70.3 °F - 47.8 °F 45% 29.88 in 10.0 mi SE 6.9 mph - N/A   Clear
11:58 PM 67.6 °F - 47.7 °F 49% 29.88 in 10.0 mi SSE 2.3 mph - N/A   Clear